TimeCST,TemperatureF,Dew PointF,Humidity,Sea Level PressureIn,VisibilityMPH,Wind Direction,Wind SpeedMPH,Gust SpeedMPH,PrecipitationIn,Events,Conditions,WindDirDegrees,DateUTC
12:56 AM,33.1,30.0,89,29.82,-9999.0,NW,5.8,-,N/A,,Unknown,310,2014-01-11 06:56:00
1:56 AM,32.0,28.9,88,29.83,-9999.0,WNW,5.8,-,N/A,,Unknown,290,2014-01-11 07:56:00
2:56 AM,33.1,28.0,82,29.85,-9999.0,WNW,8.1,-,N/A,,Unknown,290,2014-01-11 08:56:00
3:56 AM,32.0,25.0,75,29.86,-9999.0,NW,9.2,-,N/A,,Unknown,310,2014-01-11 09:56:00
4:56 AM,30.9,23.0,72,29.88,-9999.0,NNW,5.8,-,N/A,,Unknown,340,2014-01-11 10:56:00
5:56 AM,30.0,23.0,75,29.91,-9999.0,NNW,4.6,-,N/A,,Unknown,330,2014-01-11 11:56:00
6:56 AM,28.9,23.0,78,29.94,-9999.0,WNW,5.8,-,N/A,,Unknown,300,2014-01-11 12:56:00
7:56 AM,32.0,24.1,73,29.97,-9999.0,NW,8.1,-,N/A,,Unknown,310,2014-01-11 13:56:00
8:56 AM,37.0,25.0,62,29.99,-9999.0,Variable,5.8,-,N/A,,Unknown,0,2014-01-11 14:56:00
9:56 AM,46.0,26.1,46,29.99,-9999.0,NW,10.4,-,N/A,,Unknown,310,2014-01-11 15:56:00
10:56 AM,50.0,26.1,39,30.02,-9999.0,NW,13.8,23.0,N/A,,Unknown,320,2014-01-11 16:56:00
11:56 AM,52.0,27.0,38,30.01,-9999.0,NNW,17.3,24.2,N/A,,Unknown,340,2014-01-11 17:56:00
12:56 PM,55.0,25.0,31,30.00,-9999.0,NW,16.1,20.7,N/A,,Unknown,320,2014-01-11 18:56:00
1:56 PM,57.0,23.0,27,29.97,-9999.0,NW,16.1,-,N/A,,Unknown,320,2014-01-11 19:56:00
2:56 PM,57.0,21.9,26,29.97,-9999.0,WNW,12.7,-,N/A,,Unknown,290,2014-01-11 20:56:00
3:56 PM,57.9,19.9,23,29.97,-9999.0,West,10.4,-,N/A,,Unknown,280,2014-01-11 21:56:00
4:56 PM,55.9,21.9,27,29.96,-9999.0,West,5.8,-,N/A,,Unknown,280,2014-01-11 22:56:00
5:56 PM,51.1,21.0,31,29.95,-9999.0,SSW,4.6,-,N/A,,Unknown,200,2014-01-11 23:56:00
6:56 PM,48.0,21.0,34,29.95,-9999.0,SSW,5.8,-,N/A,,Unknown,200,2014-01-12 00:56:00
7:56 PM,44.1,21.9,42,29.94,-9999.0,SSW,5.8,-,N/A,,Unknown,200,2014-01-12 01:56:00
8:56 PM,43.0,21.9,43,29.93,-9999.0,South,6.9,-,N/A,,Unknown,170,2014-01-12 02:56:00
9:56 PM,41.0,21.9,47,29.92,-9999.0,South,4.6,-,N/A,,Unknown,170,2014-01-12 03:56:00
10:56 PM,39.9,21.9,49,29.88,-9999.0,SE,9.2,-,N/A,,Unknown,140,2014-01-12 04:56:00
11:56 PM,39.9,21.9,49,29.85,-9999.0,SE,5.8,-,N/A,,Unknown,130,2014-01-12 05:56:00